sat.trackr.live / text

‹ back to catalog

STARLINK-34952

NORAD 65197 · 2025-175Z

PAYLOAD ACTIVE UNKNOWN

§ Identity

Operator
Country
US
Launch date
2025-08-14
Launch site
AFWTR
Launch vehicle
Mass (kg)
RCS (m²)

Purposes: comms

External: N2YO · Heavens-Above · Gunter

§ Orbital elements

Epoch: 2026-05-25T02:42:07.237728Z

Period
95.64 min
Inclination
97.4526°
Eccentricity
0.0002549
Mean motion
15.05659608 rev/d
Perigee alt
547.7 km
Apogee alt
551.2 km
Semi-major
6,927.6 km
B*
2.5272e-4
RAAN
17.6685°
Arg perigee
78.1911°
Mean anomaly
281.9602°
Rev number
4,414

§ Raw data

STARLINK-349521 65197U 25175Z   26145.11258377  .00003591  00000+0  25272-3 0  99982 65197  97.4526  17.6685 0002549  78.1911 281.9602 15.05659608 44149

JSON: /api/v1/satellites/65197 · /tle

For live sub-satellite position, see the globe view (requires WebGL).

§ Visibility from observer

Set your observer location to see the next 7 days of passes ≥ 10°. The values pass through the URL so the page stays shareable.

No JS? Fill the form by hand. The geolocation button needs JavaScript.